Weather History for Glens Falls, NY

Change the Weather History Date:

Friday, February 1, 2013

  Actual Average Record
Temperature  
Mean Temperature 21 °F 18 °F  
Max Temperature 26 °F 30 °F 56 °F (1989)
Min Temperature 15 °F 7 °F -20 °F (1971)
Degree Days  
Heating Degree Days 44 47  
Month to date heating degree days 44 47  
Since 1 July heating degree days 3989 4443  
Cooling Degree Days 0 0  
Month to date cooling degree days 0 0  
Year to date cooling degree days 0 0  
Moisture  
Dew Point 9 °F    
Average Humidity 58    
Maximum Humidity 80    
Minimum Humidity 36    
Precipitation  
Precipitation T in 0.08 in 1.70 in (1951)
Month to date precipitation T 0.08  
Year to date precipitation 1.28 2.94  
Sea Level Pressure  
Sea Level Pressure 29.84 in    
Wind  
Wind Speed 9 mph (West)    
Max Wind Speed 22 mph    
Max Gust Speed 26 mph    
Visibility 8 miles    
Events Snow    
T = Trace of Precipitation, MM = Missing Value Source: NWS Daily Summary

Daily Weather History Graph

Daily Weather History Graph

Search for Another Location

Airport:

Trip Planner

Search our weather history database for the weather conditions in past years. The results will help you decide how hot, cold, wet, or windy it might be!

Date:

Astronomy

Feb. 01, 2013 Rise Set
Actual Time 7:10 AM EST 5:06 PM EST
Civil Twilight 6:39 AM EST 5:36 PM EST
Nautical Twilight 6:05 AM EST 6:11 PM EST
Astronomical Twilight 5:32 AM EST 6:44 PM EST
Moon 11:23 PM EST (2/1) 9:30 AM EST (2/1)
Length of Visible Light 10h 57m
Length of Day
9h 56m
Waning Gibbous, 70% of the Moon is Illuminated
Feb 1
Waning Gibbous
Feb 3
Last Quarter
Feb 10
New
Feb 17
First Quarter
Feb 25
Full

Hourly Weather History & Observations

Time (EST) Temp. Windchill Dew Point Humidity Pressure Visibility Wind Dir Wind Speed Gust Speed Precip Events Conditions
12:53 AM 26.1 °F 14.5 °F 8.1 °F 47% 29.61 in 10.0 mi WSW 13.8 mph 24.2 mph N/A   Overcast
1:53 AM 25.0 °F 16.3 °F 12.0 °F 58% 29.65 in 10.0 mi North 8.1 mph 17.3 mph N/A   Overcast
2:53 AM 21.9 °F 8.7 °F 16.0 °F 78% 29.66 in 2.5 mi WNW 15.0 mph 23.0 mph 0.00 in Snow Light Snow
3:06 AM 21.2 °F 10.1 °F 15.8 °F 80% 29.63 in 4.0 mi West 10.4 mph 20.7 mph 0.00 in Snow Light Snow
3:53 AM 21.9 °F 11.7 °F 14.0 °F 72% 29.67 in 5.0 mi WNW 9.2 mph - 0.00 in Snow Light Snow
4:07 AM 21.2 °F 12.6 °F 15.8 °F 80% 29.65 in 2.0 mi West 6.9 mph - 0.00 in Snow Light Snow
4:21 AM 21.2 °F 14.9 °F 15.8 °F 80% 29.65 in 1.2 mi WSW 4.6 mph - 0.00 in Snow Light Snow
4:30 AM 21.2 °F 13.6 °F 17.6 °F 86% 29.65 in 3.0 mi Variable 5.8 mph - 0.00 in Snow Light Snow
4:48 AM 19.4 °F 11.5 °F 17.6 °F 93% 29.66 in 6.0 mi SW 5.8 mph - 0.00 in Snow Light Snow
4:53 AM 19.9 °F 12.1 °F 16.0 °F 85% 29.69 in 9.0 mi SW 5.8 mph - 0.00 in   Mostly Cloudy
5:53 AM 19.9 °F 12.1 °F 12.9 °F 74% 29.71 in 10.0 mi SW 5.8 mph - N/A   Scattered Clouds
6:53 AM 17.1 °F - 12.9 °F 84% 29.75 in 10.0 mi Calm Calm - N/A   Overcast
7:53 AM 17.1 °F - 12.9 °F 84% 29.79 in 10.0 mi Calm Calm - N/A   Mostly Cloudy
8:53 AM 21.9 °F 14.5 °F 10.9 °F 63% 29.81 in 10.0 mi SW 5.8 mph - N/A   Partly Cloudy
9:53 AM 21.9 °F 10.4 °F 5.0 °F 48% 29.83 in 10.0 mi West 11.5 mph 19.6 mph N/A   Mostly Cloudy
10:53 AM 24.1 °F 14.4 °F 7.0 °F 48% 29.86 in 10.0 mi WNW 9.2 mph 17.3 mph N/A   Mostly Cloudy
11:53 AM 24.1 °F 13.1 °F 7.0 °F 48% 29.86 in 10.0 mi West 11.5 mph 21.9 mph N/A   Mostly Cloudy
12:53 PM 25.0 °F 11.7 °F 7.0 °F 46% 29.86 in 10.0 mi WNW 17.3 mph - N/A   Overcast
1:53 PM 24.8 °F 14.0 °F 6.8 °F 46% 29.84 in 10.0 mi WNW 11.5 mph 18.4 mph N/A   Overcast
2:53 PM 24.1 °F 11.0 °F 3.0 °F 40% 29.90 in 10.0 mi WNW 16.1 mph 26.5 mph N/A   Mostly Cloudy
3:53 PM 24.1 °F 10.6 °F 1.9 °F 38% 29.94 in 10.0 mi NW 17.3 mph 26.5 mph N/A   Overcast
4:53 PM 21.9 °F 11.0 °F 3.9 °F 46% 29.98 in 10.0 mi WNW 10.4 mph - N/A   Mostly Cloudy
5:53 PM 19.9 °F 10.1 °F 3.0 °F 48% 30.01 in 10.0 mi West 8.1 mph - N/A   Clear
6:53 PM 19.9 °F 6.2 °F 1.9 °F 46% 30.06 in 10.0 mi West 15.0 mph 21.9 mph N/A   Clear
7:53 PM 19.0 °F 9.0 °F 1.9 °F 47% 30.08 in 10.0 mi West 8.1 mph - N/A   Clear
8:53 PM 18.0 °F 8.7 °F 1.9 °F 50% 30.09 in 10.0 mi West 6.9 mph 17.3 mph N/A   Partly Cloudy
9:53 PM 18.0 °F 8.7 °F 1.0 °F 48% 30.12 in 10.0 mi West 6.9 mph - N/A   Overcast
10:53 PM 17.1 °F 6.6 °F 1.9 °F 52% 30.14 in 10.0 mi West 8.1 mph - N/A   Mostly Cloudy
11:53 PM 15.1 °F 9.4 °F 1.0 °F 54% 30.17 in 10.0 mi West 3.5 mph - N/A   Clear